EW5589 Weather Reports


time (UTC)temp
C
wind
direction
speed
KPH
gust
KPH
rain 1hr
cm
rain 24hr
cm
rain mn
cm
humidity
%
barometer
mb
20260505040028 17 169 8.0 16.1 0.00 0.00 0.00 62 1001.8
20260505034532 18 187 11.3 22.5 0.00 0.00 0.00 61 1002.0
20260505033010 18 216 19.3 27.4 0.00 0.00 0.00 57 1002.2
20260505031512 17 183 17.7 24.1 0.00 0.00 0.00 55 1002.1
20260505030109 17 162 4.8 6.4 0.00 0.00 0.00 61 1001.8
20260505024557 17 165 3.2 8.0 0.00 0.00 0.00 58 1001.9
20260505023101 17 160 6.4 9.7 0.00 0.00 0.00 59 1001.8
20260505021556 17 165 4.8 8.0 0.00 0.00 0.00 60 1002.1
20260505020059 17 170 0.0 8.0 0.00 0.00 0.00 63 1002.1
20260505014555 17 210 0.0 4.8 0.00 0.00 0.00 66 1002.3
20260505013055 17 210 3.2 4.8 0.00 0.00 0.00 58 1002.2
20260505011609 18 213 3.2 9.7 0.00 0.00 0.00 61 1002.2
20260505010054 18 217 3.2 6.4 0.00 0.00 0.00 56 1002.0
20260505004535 18 214 1.6 6.4 0.00 0.00 0.00 52 1002.0
20260505003034 20 216 8.0 16.1 0.00 0.03 0.00 49 1002.0
20260505001517 19 200 4.8 9.7 0.00 0.03 0.00 55 1002.0
20260505000016 20 219 6.4 9.7 0.00 0.03 0.00 49 1002.0
20260504234600 21 231 4.8 12.9 0.00 0.03 0.00 45 1002.0
20260504233112 21 231 8.0 16.1 0.00 0.03 0.00 41 1002.0
20260504231638 22 271 8.0 16.1 0.00 0.03 0.00 42 1002.1
20260504230038 22 251 9.7 16.1 0.00 0.03 0.00 41 1001.9
20260504224532 22 230 11.3 24.1 0.00 0.03 0.00 38 1001.8
20260504223026 22 255 19.3 32.2 0.00 0.03 0.00 38 1001.9
20260504221524 22 238 16.1 29.0 0.00 0.03 0.00 42 1001.7
20260504220023 22 214 20.9 29.0 0.00 0.03 0.00 40 1001.8
20260504214522 22 224 20.9 35.4 0.00 0.03 0.00 40 1001.8
20260504213021 23 205 22.5 35.4 0.00 0.03 0.00 41 1001.9
20260504211518 22 228 27.4 38.6 0.00 0.03 0.00 41 1002.0
20260504210019 22 220 25.7 37.0 0.00 0.03 0.00 43 1002.1
20260504204606 22 250 24.1 45.1 0.00 0.03 0.00 42 1002.2
20260504203058 22 217 25.7 38.6 0.00 0.03 0.00 43 1002.4
20260504201534 22 219 22.5 41.8 0.00 0.03 0.00 42 1002.5
20260504200033 22 238 16.1 33.8 0.00 0.03 0.00 44 1002.6
20260504194512 21 200 20.9 35.4 0.00 0.03 0.00 46 1002.8
20260504193011 21 228 22.5 40.2 0.00 0.03 0.00 46 1003.2
20260504191611 21 252 22.5 45.1 0.00 0.03 0.00 46 1003.4
20260504190052 21 195 22.5 41.8 0.00 0.03 0.00 48 1003.7
20260504184549 20 196 25.7 37.0 0.00 0.03 0.00 51 1003.7
20260504183047 20 235 30.6 41.8 0.00 0.03 0.00 50 1003.9
20260504181551 20 205 29.0 45.1 0.00 0.03 0.00 52 1004.0
20260504180046 20 203 27.4 41.8 0.00 0.03 0.00 52 1004.2
20260504174541 20 206 27.4 33.8 0.00 0.03 0.00 55 1004.3
20260504173039 20 221 20.9 40.2 0.00 0.03 0.00 54 1004.4
20260504171536 19 202 27.4 43.5 0.00 0.03 0.00 53 1004.5
20260504090104 12 195 16.1 25.7 0.00 0.03 0.00 63 1006.4
20260504081508 11 186 19.3 24.1 0.00 0.03 0.00 65 1006.6
20260504044616 12 211 16.1 27.4 0.00 0.03 0.03 60 1008.2
20260504043046 12 217 19.3 27.4 0.00 0.03 0.03 62 1008.1
20260504041538 13 217 19.3 32.2 0.00 0.03 0.03 61 1008.2